Location: Newark
(34.1333°N, 7.9667°W)
Time: 05:29:59
(UTC+00:00)

BEESAT - Visible Passes

Search period start: 03 June 2023 00:00
Search period end: 13 June 2023 00:00
Orbit: 696 x 706 km, 98.5° (Epoch: 02 June)

Date Brightness Start Highest point End Pass type
(mag) Time Alt. Az. Time Alt. Az. Time Alt. Az.
03 Jun ? 20:40:32 10° ENE 20:43:25 16° E 20:44:18 15° ESE visible
03 Jun ? 22:16:45 10° N 22:21:13 42° WNW 22:23:09 28° WSW visible
04 Jun ? 21:21:18 10° NNE 21:25:51 46° E 21:27:05 37° SE visible
04 Jun ? 23:00:19 10° NNW 23:03:06 16° WNW 23:05:54 10° WSW visible
05 Jun ? 20:28:49 10° ENE 20:30:05 11° E 20:31:01 10° ESE visible
05 Jun ? 22:03:23 10° N 22:08:04 60° WNW 22:09:52 35° SW visible
06 Jun ? 21:08:21 10° NE 21:12:36 32° E 21:13:48 28° SE visible
06 Jun ? 22:46:28 10° NNW 22:50:02 22° WNW 22:52:39 14° WSW visible
07 Jun ? 21:50:07 10° NNE 21:54:53 85° WNW 21:56:35 41° SSW visible
08 Jun ? 20:55:33 10° NE 20:59:19 23° E 21:00:29 21° ESE visible
08 Jun ? 22:32:50 10° N 22:36:56 29° WNW 22:39:20 19° WSW visible
09 Jun ? 21:36:56 10° NNE 21:41:41 68° ESE 21:43:15 41° S visible
09 Jun ? 23:17:35 10° NW 23:18:43 11° WNW 23:19:51 10° WNW visible
10 Jun ? 20:43:00 10° NE 20:46:00 17° E 20:47:10 15° ESE visible
10 Jun ? 22:19:21 10° N 22:23:47 41° WNW 22:26:01 25° SW visible
11 Jun ? 21:23:50 10° NNE 21:28:26 47° E 21:29:55 35° SSE visible
11 Jun ? 23:02:58 10° NNW 23:05:40 15° WNW 23:08:21 10° W visible
12 Jun ? 20:31:05 10° ENE 20:32:39 11° E 20:33:50 11° ESE visible
12 Jun ? 22:05:57 10° N 22:10:37 58° WNW 22:12:41 31° SW visible
